UAL1857 KEWR-KBOS

Flight info

Callsign UAL1857
Flight time 0h 40m
Altitude 21000
Route MERIT ROBUC3
Aircraft B38M/M-SDE1FGHILORVWXY/HB1

Departure

Time 2026-05-08 00:03
Airport Newark Liberty International Airport (KEWR)

Arrival

Time 2026-05-08 00:43
Airport Boston Logan International Airport (KBOS)
Time Latitude Longitude Altitude Speed Heading
2026-05-07 23:47 40.68563 -74.17911 23 ft 0 kts 334°
2026-05-07 23:53 40.68542 -74.17896 22 ft 4 kts 326°
2026-05-07 23:53 40.68523 -74.17873 22 ft 4 kts 297°
2026-05-07 23:53 40.68521 -74.17848 23 ft 1 kts 241°
2026-05-07 23:53 40.68521 -74.17847 27 ft 1 kts 241°
2026-05-07 23:58 40.68519 -74.17854 25 ft 4 kts 241°
2026-05-07 23:58 40.68490 -74.17933 21 ft 16 kts 252°
2026-05-07 23:58 40.68461 -74.18069 25 ft 10 kts 224°
2026-05-07 23:58 40.68397 -74.18064 24 ft 15 kts 165°
2026-05-07 23:59 40.68288 -74.18034 25 ft 8 kts 149°
2026-05-07 23:59 40.68277 -74.17964 26 ft 16 kts 81°
2026-05-07 23:59 40.68323 -74.17768 25 ft 18 kts 101°
2026-05-07 23:59 40.68213 -74.17683 24 ft 22 kts 190°
2026-05-08 00:00 40.68067 -74.17770 23 ft 25 kts 206°
2026-05-08 00:00 40.67908 -74.17871 27 ft 26 kts 206°
2026-05-08 00:00 40.67740 -74.17977 26 ft 27 kts 205°
2026-05-08 00:00 40.67630 -74.18046 27 ft 8 kts 196°
2026-05-08 00:01 40.67599 -74.18039 24 ft 0 kts 152°
2026-05-08 00:01 40.67598 -74.18038 24 ft 0 kts 143°
2026-05-08 00:01 40.67589 -74.18028 24 ft 5 kts 137°
2026-05-08 00:02 40.67566 -74.17941 26 ft 15 kts 72°
2026-05-08 00:02 40.67707 -74.17834 22 ft 48 kts 25°
2026-05-08 00:02 40.68242 -74.17496 28 ft 122 kts 25°
2026-05-08 00:02 40.69158 -74.16898 247 ft 161 kts 25°
2026-05-08 00:03 40.70131 -74.16244 1296 ft 142 kts 22°
2026-05-08 00:03 40.70969 -74.15672 2233 ft 134 kts 25°
2026-05-08 00:03 40.71819 -74.15027 2659 ft 151 kts 27°
2026-05-08 00:03 40.72678 -74.14130 2724 ft 164 kts 40°
2026-05-08 00:04 40.73537 -74.13052 2856 ft 177 kts 40°
2026-05-08 00:04 40.74471 -74.11900 2993 ft 191 kts 40°
2026-05-08 00:04 40.75486 -74.10658 3040 ft 208 kts 40°
2026-05-08 00:04 40.76732 -74.09601 2958 ft 219 kts 23°
2026-05-08 00:05 40.78059 -74.08415 3282 ft 242 kts 42°
2026-05-08 00:05 40.79127 -74.06584 4089 ft 263 kts 59°
2026-05-08 00:05 40.79809 -74.04292 5054 ft 272 kts 74°
2026-05-08 00:05 40.80187 -74.01819 6124 ft 278 kts 77°
2026-05-08 00:06 40.80523 -73.99284 7132 ft 282 kts 77°
2026-05-08 00:06 40.80854 -73.96700 8093 ft 289 kts 78°
2026-05-08 00:06 40.81188 -73.94092 9018 ft 295 kts 77°
2026-05-08 00:06 40.81540 -73.91402 9794 ft 304 kts 77°
2026-05-08 00:07 40.81919 -73.88620 9963 ft 309 kts 76°
2026-05-08 00:07 40.82591 -73.85922 9973 ft 310 kts 62°
2026-05-08 00:07 40.83591 -73.83394 10008 ft 311 kts 58°
2026-05-08 00:07 40.84651 -73.80902 10018 ft 311 kts 57°
2026-05-08 00:08 40.85718 -73.78414 10014 ft 311 kts 57°
2026-05-08 00:08 40.86785 -73.75934 10015 ft 311 kts 57°
2026-05-08 00:08 40.87877 -73.73387 10370 ft 325 kts 57°
2026-05-08 00:08 40.89033 -73.70720 10886 ft 343 kts 57°
2026-05-08 00:09 40.90261 -73.67911 11397 ft 361 kts 57°
2026-05-08 00:09 40.91680 -73.65123 11976 ft 369 kts 41°
2026-05-08 00:09 40.93709 -73.63075 12682 ft 372 kts 29°
2026-05-08 00:09 40.95766 -73.60872 13304 ft 386 kts 36°
2026-05-08 00:10 40.97818 -73.58554 14079 ft 391 kts 36°
2026-05-08 00:10 40.99890 -73.56241 14771 ft 398 kts 36°
2026-05-08 00:10 41.02017 -73.53885 15741 ft 395 kts 36°
2026-05-08 00:10 41.04114 -73.51573 16761 ft 393 kts 36°
2026-05-08 00:11 41.06230 -73.49239 17376 ft 402 kts 36°
2026-05-08 00:11 41.08422 -73.46819 17915 ft 412 kts 36°
2026-05-08 00:11 41.10636 -73.44372 18607 ft 416 kts 36°
2026-05-08 00:11 41.12871 -73.41902 19229 ft 422 kts 36°
2026-05-08 00:12 41.15138 -73.39393 19838 ft 427 kts 36°
2026-05-08 00:12 41.17432 -73.36844 20454 ft 432 kts 37°
2026-05-08 00:12 41.19456 -73.33890 20608 ft 439 kts 58°
2026-05-08 00:12 41.20661 -73.30196 20788 ft 436 kts 78°
2026-05-08 00:13 41.21474 -73.26304 20836 ft 439 kts 74°
2026-05-08 00:13 41.22459 -73.22459 20874 ft 441 kts 72°
2026-05-08 00:13 41.23505 -73.18626 20862 ft 441 kts 71°
2026-05-08 00:13 41.24574 -73.14809 20865 ft 441 kts 71°
2026-05-08 00:14 41.25659 -73.10996 20859 ft 442 kts 71°
2026-05-08 00:14 41.26755 -73.07167 20860 ft 442 kts 71°
2026-05-08 00:14 41.27851 -73.03343 20865 ft 442 kts 71°
2026-05-08 00:14 41.28945 -72.99527 20858 ft 442 kts 71°
2026-05-08 00:15 41.30039 -72.95704 20859 ft 442 kts 71°
2026-05-08 00:15 41.31132 -72.91878 20857 ft 443 kts 71°
2026-05-08 00:15 41.32227 -72.88042 20859 ft 443 kts 71°
2026-05-08 00:15 41.33319 -72.84209 20863 ft 443 kts 71°
2026-05-08 00:16 41.34396 -72.80423 20857 ft 443 kts 71°
2026-05-08 00:16 41.35486 -72.76586 20865 ft 443 kts 71°
2026-05-08 00:16 41.36574 -72.72749 20860 ft 443 kts 71°
2026-05-08 00:16 41.37662 -72.68911 20856 ft 443 kts 71°
2026-05-08 00:17 41.38748 -72.65070 20861 ft 443 kts 71°
2026-05-08 00:17 41.39831 -72.61233 20858 ft 443 kts 71°
2026-05-08 00:17 41.40917 -72.57382 20862 ft 444 kts 71°
2026-05-08 00:17 41.42002 -72.53529 20858 ft 444 kts 71°
2026-05-08 00:18 41.43085 -72.49676 20864 ft 444 kts 71°
2026-05-08 00:18 41.44173 -72.45801 20842 ft 445 kts 72°
2026-05-08 00:18 41.45254 -72.41947 20863 ft 444 kts 71°
2026-05-08 00:18 41.46320 -72.38134 20859 ft 444 kts 71°
2026-05-08 00:19 41.47397 -72.34280 20856 ft 444 kts 71°
2026-05-08 00:19 41.48474 -72.30418 20862 ft 444 kts 71°
2026-05-08 00:19 41.49549 -72.26555 20858 ft 445 kts 72°
2026-05-08 00:19 41.50625 -72.22687 20855 ft 444 kts 72°
2026-05-08 00:20 41.51698 -72.18821 20846 ft 444 kts 72°
2026-05-08 00:20 41.52767 -72.14969 20851 ft 445 kts 72°
2026-05-08 00:20 41.53840 -72.11091 20854 ft 445 kts 72°
2026-05-08 00:20 41.54911 -72.07219 20852 ft 445 kts 72°
2026-05-08 00:21 41.55980 -72.03346 20852 ft 444 kts 72°
2026-05-08 00:21 41.57050 -71.99460 20847 ft 445 kts 72°
2026-05-08 00:21 41.58116 -71.95584 20851 ft 445 kts 72°
2026-05-08 00:21 41.59171 -71.91745 20840 ft 445 kts 72°
2026-05-08 00:22 41.60236 -71.87861 20845 ft 445 kts 72°
2026-05-08 00:22 41.61298 -71.83983 20584 ft 444 kts 72°
2026-05-08 00:22 41.62358 -71.80109 19845 ft 441 kts 72°
2026-05-08 00:22 41.63403 -71.76279 19141 ft 437 kts 72°
2026-05-08 00:23 41.64444 -71.72462 18417 ft 435 kts 72°
2026-05-08 00:23 41.65467 -71.68700 17904 ft 427 kts 72°
2026-05-08 00:23 41.66476 -71.64985 17427 ft 425 kts 72°
2026-05-08 00:23 41.67486 -71.61266 16958 ft 425 kts 72°
2026-05-08 00:24 41.68483 -71.57591 16600 ft 414 kts 72°
2026-05-08 00:24 41.69457 -71.53989 16170 ft 409 kts 71°
2026-05-08 00:24 41.70095 -71.51630 15845 ft 405 kts 71°
2026-05-08 00:24 41.71050 -71.48090 15396 ft 402 kts 71°
2026-05-08 00:25 41.71992 -71.44592 14750 ft 399 kts 71°
2026-05-08 00:25 41.73200 -71.41169 13490 ft 411 kts 58°
2026-05-08 00:25 41.74639 -71.37861 12609 ft 409 kts 58°
2026-05-08 00:25 41.76023 -71.34642 11881 ft 381 kts 58°
2026-05-08 00:26 41.77281 -71.31701 11069 ft 359 kts 58°
2026-05-08 00:26 41.78510 -71.28821 10862 ft 349 kts 58°
2026-05-08 00:26 41.79677 -71.26086 11064 ft 328 kts 58°
2026-05-08 00:26 41.80786 -71.23482 11036 ft 323 kts 58°
2026-05-08 00:27 41.81901 -71.20864 11027 ft 323 kts 58°
2026-05-08 00:27 41.83014 -71.18246 11017 ft 323 kts 58°
2026-05-08 00:27 41.84126 -71.15627 11008 ft 323 kts 58°
2026-05-08 00:27 41.85237 -71.13012 11002 ft 321 kts 58°
2026-05-08 00:28 41.86361 -71.10415 11004 ft 322 kts 57°
2026-05-08 00:28 41.87490 -71.07808 11004 ft 323 kts 57°
2026-05-08 00:28 41.88618 -71.05196 11003 ft 324 kts 57°
2026-05-08 00:28 41.89746 -71.02584 11003 ft 324 kts 57°
2026-05-08 00:29 41.90874 -70.99967 10977 ft 324 kts 57°
2026-05-08 00:29 41.92005 -70.97341 10857 ft 324 kts 57°
2026-05-08 00:29 41.93133 -70.94722 10641 ft 323 kts 57°
2026-05-08 00:29 41.94250 -70.92123 10432 ft 320 kts 57°
2026-05-08 00:30 41.95355 -70.89552 10227 ft 315 kts 57°
2026-05-08 00:30 41.96439 -70.87024 10023 ft 309 kts 57°
2026-05-08 00:30 41.97492 -70.84571 9832 ft 303 kts 57°
2026-05-08 00:30 41.98540 -70.82125 9644 ft 303 kts 57°
2026-05-08 00:31 41.99599 -70.79653 9455 ft 306 kts 57°
2026-05-08 00:31 42.00657 -70.77183 9254 ft 304 kts 57°
2026-05-08 00:31 42.01893 -70.74919 9058 ft 297 kts 44°
2026-05-08 00:31 42.03289 -70.72882 8867 ft 295 kts 44°
2026-05-08 00:32 42.04665 -70.70849 8697 ft 293 kts 44°
2026-05-08 00:32 42.06034 -70.68814 8509 ft 292 kts 45°
2026-05-08 00:32 42.07391 -70.66785 8327 ft 291 kts 45°
2026-05-08 00:32 42.08722 -70.64793 8145 ft 290 kts 45°
2026-05-08 00:33 42.10115 -70.62791 7979 ft 287 kts 36°
2026-05-08 00:33 42.11808 -70.61593 7722 ft 276 kts 11°
2026-05-08 00:33 42.13676 -70.61115 7510 ft 270 kts
2026-05-08 00:33 42.15506 -70.60681 7346 ft 262 kts
2026-05-08 00:34 42.17265 -70.60272 7285 ft 250 kts
2026-05-08 00:34 42.18952 -70.60239 7207 ft 237 kts 349°
2026-05-08 00:34 42.20603 -70.60615 7183 ft 248 kts 346°
2026-05-08 00:34 42.22321 -70.61070 7105 ft 251 kts 346°
2026-05-08 00:35 42.24049 -70.61533 6463 ft 257 kts 346°
2026-05-08 00:35 42.25832 -70.62023 6037 ft 260 kts 346°
2026-05-08 00:35 42.27542 -70.62498 5757 ft 248 kts 346°
2026-05-08 00:35 42.29197 -70.62957 5474 ft 237 kts 346°
2026-05-08 00:36 42.30779 -70.63388 5230 ft 226 kts 346°
2026-05-08 00:36 42.32263 -70.63911 4966 ft 214 kts 334°
2026-05-08 00:36 42.33526 -70.64842 4748 ft 202 kts 326°
2026-05-08 00:36 42.34693 -70.65834 4560 ft 194 kts 326°
2026-05-08 00:37 42.35802 -70.66783 4439 ft 185 kts 326°
2026-05-08 00:37 42.36902 -70.67719 4117 ft 188 kts 326°
2026-05-08 00:37 42.38002 -70.68659 3877 ft 187 kts 326°
2026-05-08 00:38 42.39732 -70.71150 3313 ft 185 kts 292°
2026-05-08 00:38 42.40095 -70.72788 3067 ft 184 kts 280°
2026-05-08 00:38 42.40113 -70.74485 2969 ft 175 kts 267°
2026-05-08 00:38 42.39936 -70.76070 2973 ft 168 kts 263°
2026-05-08 00:39 42.39708 -70.77621 2990 ft 167 kts 261°
2026-05-08 00:39 42.39458 -70.79169 2817 ft 169 kts 261°
2026-05-08 00:39 42.39197 -70.80703 2625 ft 167 kts 260°
2026-05-08 00:39 42.38934 -70.82232 2424 ft 167 kts 259°
2026-05-08 00:40 42.38667 -70.83764 2221 ft 166 kts 259°
2026-05-08 00:40 42.38399 -70.85290 2013 ft 167 kts 259°
2026-05-08 00:40 42.38132 -70.86815 1798 ft 165 kts 258°
2026-05-08 00:40 42.37880 -70.88234 1626 ft 144 kts 259°
2026-05-08 00:41 42.37659 -70.89493 1441 ft 134 kts 259°
2026-05-08 00:41 42.37448 -70.90694 1257 ft 133 kts 258°
2026-05-08 00:41 42.37233 -70.91908 1071 ft 132 kts 259°
2026-05-08 00:41 42.37020 -70.93114 899 ft 133 kts 258°
2026-05-08 00:42 42.36795 -70.94319 735 ft 132 kts 258°
2026-05-08 00:42 42.36590 -70.95531 548 ft 132 kts 259°
2026-05-08 00:42 42.36376 -70.96745 373 ft 132 kts 259°
2026-05-08 00:42 42.36160 -70.97930 178 ft 129 kts 262°
2026-05-08 00:43 42.35961 -70.99113 34 ft 125 kts 258°
2026-05-08 00:43 42.35798 -71.00042 33 ft 69 kts 257°
2026-05-08 00:43 42.35763 -71.00456 28 ft 32 kts 278°
2026-05-08 00:43 42.35775 -71.00584 25 ft 0 kts 277°